Location: Finkenbach
(49.5340°N, 8.9188°E)
Time: 21:21:18
(UTC+00:00)

Cosmos 1515 Rocket - Pass Details

Date: 17 June 2025
Orbit: 599 x 624 km, 82.5° (Epoch: 16 July)

Event Time Altitude Azimuth Distance (km) Brightness Sun altitude
Exits shadow 20:41:10 - 188° (S) 2,763 6.5 -8.4°
Reaches altitude 10° 20:43:04 10° 188° (S) 1,992 5.8 -8.6°
Maximum altitude 20:47:30 89° 93° (E) 632 3.6 -9.1°
Drops below altitude 10° 20:51:57 10° 10° (N) 2,009 6.9 -9.5°
Sets 20:54:12 0° 11° (N) 2,919 7.8 -9.7°
